| time (UTC) | temp F | wind direction | speed knots | gust knots | rain 1hr in | rain 24hr in | rain mn in | humidity % | barometer mb |
| 20260506164601 | 62 | 171 | 7.0 | 14.8 | 0.09 | 0.13 | 0.13 | 1 | 1004.6 |
| 20260506163050 | 62 | 171 | 6.1 | 10.4 | 0.09 | 0.11 | 0.11 | 1 | 1005.1 |
| 20260506161540 | 62 | 203 | 5.2 | 8.7 | 0.08 | 0.09 | 0.09 | 1 | 1005.2 |
| 20260506160037 | 63 | 196 | 5.2 | 8.7 | 0.06 | 0.06 | 0.06 | 1 | 1005.4 |
| 20260506154531 | 63 | 161 | 5.2 | 11.3 | 0.04 | 0.04 | 0.04 | 1 | 1005.4 |
| 20260506153027 | 63 | 193 | 5.2 | 11.3 | 0.02 | 0.02 | 0.02 | 1 | 1005.4 |
| 20260506151522 | 63 | 184 | 4.3 | 8.7 | 0.00 | 0.00 | 0.00 | 1 | 1005.3 |
| 20260506150018 | 63 | 175 | 6.1 | 8.7 | 0.00 | 0.00 | 0.00 | 1 | 1005.5 |
| 20260506144522 | 63 | 204 | 6.1 | 13.0 | 0.00 | 0.00 | 0.00 | 7 | 1005.8 |
| 20260506143009 | 63 | 200 | 7.0 | 11.3 | 0.00 | 0.00 | 0.00 | 17 | 1005.8 |
| 20260506141516 | 64 | 200 | 7.0 | 14.8 | 0.00 | 0.00 | 0.00 | 29 | 1005.8 |
| 20260506140100 | 64 | 174 | 8.7 | 15.6 | 0.00 | 0.00 | 0.00 | 31 | 1005.7 |
| 20260506134555 | 64 | 200 | 6.1 | 12.2 | 0.00 | 0.00 | 0.00 | 26 | 1005.5 |
| 20260506133106 | 64 | 178 | 7.8 | 13.9 | 0.00 | 0.00 | 0.00 | 27 | 1005.3 |
| 20260506131553 | 64 | 173 | 6.1 | 14.8 | 0.00 | 0.00 | 0.00 | 24 | 1005.2 |
| 20260506130042 | 63 | 167 | 6.1 | 10.4 | 0.00 | 0.00 | 0.00 | 20 | 1005.5 |
| 20260506124538 | 63 | 173 | 7.0 | 11.3 | 0.00 | 0.00 | 0.00 | 21 | 1005.4 |
| 20260506123039 | 62 | 169 | 7.0 | 13.0 | 0.00 | 0.00 | 0.00 | 18 | 1005.9 |
| 20260506121534 | 62 | 178 | 5.2 | 13.9 | 0.00 | 0.00 | 0.00 | 17 | 1006.0 |
| 20260506120049 | 61 | 188 | 6.1 | 12.2 | 0.00 | 0.00 | 0.00 | 18 | 1006.2 |
| 20260506114525 | 61 | 173 | 7.0 | 13.0 | 0.00 | 0.00 | 0.00 | 19 | 1005.7 |
| 20260506113021 | 61 | 161 | 7.0 | 12.2 | 0.00 | 0.00 | 0.00 | 22 | 1005.6 |
| 20260506111516 | 61 | 192 | 7.8 | 14.8 | 0.00 | 0.00 | 0.00 | 26 | 1005.5 |
| 20260506110012 | 61 | 165 | 7.0 | 18.2 | 0.00 | 0.00 | 0.00 | 28 | 1005.6 |
| 20260506104509 | 61 | 185 | 7.0 | 13.9 | 0.00 | 0.00 | 0.00 | 32 | 1005.3 |
| 20260506103010 | 61 | 169 | 7.8 | 13.9 | 0.00 | 0.00 | 0.00 | 35 | 1005.4 |
| 20260506101559 | 61 | 147 | 6.1 | 10.4 | 0.00 | 0.00 | 0.00 | 38 | 1005.6 |
| 20260506094556 | 61 | 141 | 6.1 | 9.6 | 0.00 | 0.00 | 0.00 | 44 | 1005.2 |
| 20260506093046 | 62 | 144 | 5.2 | 14.8 | 0.00 | 0.00 | 0.00 | 46 | 1005.1 |
| 20260506091541 | 62 | 156 | 7.8 | 11.3 | 0.00 | 0.00 | 0.00 | 38 | 1005.1 |
| 20260506090038 | 57 | 190 | 3.5 | 7.0 | 0.00 | 0.00 | 0.00 | 1 | 1005.1 |
| 20260506084607 | 54 | 344 | 0.0 | 2.6 | 0.00 | 0.00 | 0.00 | 1 | 1005.5 |
| 20260506083028 | 54 | 344 | 0.9 | 1.7 | 0.00 | 0.00 | 0.00 | 1 | 1005.6 |
| 20260506081534 | 55 | 344 | 0.0 | 0.9 | 0.00 | 0.00 | 0.00 | 1 | 1005.7 |
| 20260506073010 | 56 | 344 | 0.0 | 1.7 | 0.00 | 0.00 | 0.00 | 1 | 1005.8 |
| 20260506071506 | 57 | 344 | 0.9 | 3.5 | 0.00 | 0.00 | 0.00 | 1 | 1006.1 |
| 20260506061554 | 59 | 344 | 0.0 | 1.7 | 0.00 | 0.00 | 0.00 | 20 | 1006.5 |
| 20260506044534 | 69 | 227 | 0.0 | 6.1 | 0.00 | 0.00 | 0.00 | 52 | 1006.5 |
| 20260506043023 | 70 | 204 | 1.7 | 6.1 | 0.00 | 0.00 | 0.00 | 50 | 1006.3 |
| 20260506041519 | 71 | 203 | 7.0 | 15.6 | 0.00 | 0.00 | 0.00 | 48 | 1006.0 |
| 20260506040017 | 71 | 214 | 8.7 | 13.9 | 0.00 | 0.00 | 0.00 | 47 | 1005.9 |
| 20260506034517 | 71 | 211 | 6.1 | 15.6 | 0.00 | 0.00 | 0.00 | 46 | 1005.7 |
| 20260506033015 | 72 | 224 | 8.7 | 13.9 | 0.00 | 0.00 | 0.00 | 45 | 1005.7 |
| 20260506031515 | 72 | 221 | 7.0 | 13.9 | 0.00 | 0.00 | 0.00 | 44 | 1005.6 |
| 20260506030015 | 73 | 184 | 7.0 | 13.0 | 0.00 | 0.00 | 0.00 | 42 | 1005.7 |
| 20260506024513 | 73 | 215 | 7.8 | 13.0 | 0.00 | 0.00 | 0.00 | 42 | 1005.6 |
| 20260506023016 | 73 | 197 | 5.2 | 13.0 | 0.00 | 0.00 | 0.00 | 42 | 1005.7 |
| 20260506021512 | 73 | 221 | 9.6 | 14.8 | 0.00 | 0.00 | 0.00 | 41 | 1005.7 |
| 20260506020011 | 74 | 198 | 8.7 | 15.6 | 0.00 | 0.00 | 0.00 | 41 | 1005.7 |
| 20260506014510 | 74 | 200 | 8.7 | 13.9 | 0.00 | 0.00 | 0.00 | 42 | 1005.6 |
| 20260506013013 | 74 | 225 | 8.7 | 13.9 | 0.00 | 0.00 | 0.00 | 42 | 1005.3 |
| 20260506011510 | 74 | 226 | 8.7 | 18.2 | 0.00 | 0.00 | 0.00 | 42 | 1005.3 |
| 20260506010013 | 73 | 221 | 8.7 | 17.4 | 0.00 | 0.00 | 0.00 | 44 | 1005.1 |
| 20260506004511 | 69 | 234 | 3.5 | 8.7 | 0.00 | 0.00 | 0.00 | 53 | 1005.1 |
| 20260506003008 | 66 | 164 | 1.7 | 5.2 | 0.00 | 0.00 | 0.00 | 58 | 1004.8 |
| 20260506001507 | 67 | 169 | 2.6 | 3.5 | 0.00 | 0.00 | 0.00 | 58 | 1004.6 |
| 20260506000006 | 68 | 174 | 0.9 | 2.6 | 0.00 | 0.00 | 0.00 | 58 | 1004.5 |
| 20260505234506 | 69 | 175 | 2.6 | 5.2 | 0.00 | 0.00 | 0.00 | 57 | 1004.4 |
| 20260505233005 | 70 | 323 | 1.7 | 10.4 | 0.00 | 0.00 | 0.00 | 54 | 1004.4 |
| 20260505231503 | 72 | 351 | 2.6 | 7.8 | 0.00 | 0.00 | 0.00 | 49 | 1004.2 |
| 20260505230001 | 76 | 321 | 2.6 | 9.6 | 0.00 | 0.00 | 0.00 | 40 | 1004.2 |
| 20260505224501 | 76 | 242 | 7.8 | 16.5 | 0.00 | 0.00 | 0.00 | 37 | 1003.9 |
| 20260505223002 | 77 | 220 | 7.0 | 16.5 | 0.00 | 0.00 | 0.00 | 36 | 1003.6 |
| 20260505221604 | 77 | 218 | 8.7 | 19.1 | 0.00 | 0.00 | 0.00 | 36 | 1003.5 |
| 20260505214600 | 78 | 225 | 11.3 | 19.1 | 0.00 | 0.00 | 0.00 | 34 | 1003.0 |
| 20260505213058 | 78 | 223 | 11.3 | 22.6 | 0.00 | 0.00 | 0.00 | 33 | 1002.7 |
| 20260505211557 | 80 | 221 | 13.9 | 26.1 | 0.00 | 0.00 | 0.00 | 34 | 1002.7 |
| 20260505210056 | 79 | 222 | 16.5 | 26.1 | 0.00 | 0.00 | 0.00 | 33 | 1002.4 |
| 20260505204555 | 79 | 238 | 14.8 | 22.6 | 0.00 | 0.00 | 0.00 | 34 | 1002.6 |
| 20260505203112 | 79 | 226 | 17.4 | 20.9 | 0.00 | 0.00 | 0.00 | 35 | 1002.7 |
| 20260505201600 | 79 | 214 | 13.0 | 23.5 | 0.00 | 0.00 | 0.00 | 37 | 1002.9 |
| 20260505200054 | 79 | 214 | 13.9 | 27.8 | 0.00 | 0.00 | 0.00 | 37 | 1002.7 |
| 20260505194548 | 79 | 226 | 14.8 | 25.2 | 0.00 | 0.00 | 0.00 | 39 | 1002.9 |
| 20260505193046 | 79 | 192 | 15.6 | 22.6 | 0.00 | 0.00 | 0.00 | 39 | 1003.0 |
| 20260505191552 | 79 | 238 | 16.5 | 24.3 | 0.00 | 0.00 | 0.00 | 39 | 1003.2 |
| 20260505190042 | 79 | 214 | 13.9 | 27.8 | 0.00 | 0.00 | 0.00 | 39 | 1003.4 |
| 20260505184541 | 78 | 205 | 17.4 | 24.3 | 0.00 | 0.00 | 0.00 | 39 | 1003.4 |
| 20260505183039 | 78 | 222 | 13.9 | 27.8 | 0.00 | 0.00 | 0.00 | 39 | 1003.7 |
| 20260505181543 | 78 | 189 | 13.0 | 24.3 | 0.00 | 0.00 | 0.00 | 39 | 1003.8 |
| 20260505180038 | 78 | 215 | 13.9 | 27.8 | 0.00 | 0.00 | 0.00 | 39 | 1003.7 |
| 20260505174541 | 78 | 188 | 15.6 | 21.7 | 0.00 | 0.00 | 0.00 | 41 | 1004.0 |
| 20260505173033 | 78 | 187 | 13.0 | 21.7 | 0.00 | 0.00 | 0.00 | 41 | 1004.1 |
| 20260505171529 | 77 | 209 | 12.2 | 20.0 | 0.00 | 0.00 | 0.00 | 46 | 1004.3 |
| 20260505170026 | 76 | 170 | 12.2 | 20.9 | 0.00 | 0.00 | 0.00 | 45 | 1004.5 |